Cork, Ireland

6:39 AM GMT on November 18, 2017 (GMT +0000)
Cork

Weather History for EICK - October, 2012

Change the Weather History Date:

Tuesday, October 9, 2012

  Actual Average Record
Temperature  
Mean Temperature 52 °F -  
Max Temperature 53 °F 54 °F 66 °F (1999)
Min Temperature 50 °F 44 °F 39 °F (2008)
Degree Days  
Heating Degree Days 14    
Growing Degree Days 2 (Base 50)    
Moisture  
Dew Point 51 °F    
Average Humidity 97    
Maximum Humidity 100    
Minimum Humidity 88    
Precipitation  
Precipitation 0.00 in 0.16 in - ()
Sea Level Pressure  
Sea Level Pressure 29.95 in    
Wind  
Wind Speed 10 mph ()    
Max Wind Speed 14 mph    
Max Gust Speed -    
Visibility 3.8 miles    
Events      
Averages and records for this station are not official NWS values.
T = Trace of Precipitation, MM = Missing Value Source: Averaged Metar Reports

Daily Weather History Graph

Daily Weather History Graph

Search for Another Location

Airport or City:

Trip Planner

Search our weather history database for the weather conditions in past years. The results will help you decide how hot, cold, wet, or windy it might be!

Date:

Astronomy

Oct. 09, 2012 Rise Set
Actual Time 7:48 AM IST 6:52 PM IST
Civil Twilight 7:15 AM IST 7:26 PM IST
Nautical Twilight 6:36 AM IST 8:04 PM IST
Astronomical Twilight 5:56 AM IST 8:44 PM IST
Moon 12:28 AM IST (10/9) 3:51 PM IST (10/9)
Length of Visible Light 12h 11m
Length of Day
11h 03m
Last Quarter, 39% of the Moon is Illuminated
Oct 9
Last Quarter
Oct 15
New
Oct 22
First Quarter
Oct 29
Full
Nov 7
Last Quarter

Hourly Weather History & Observations

Time (IST) Temp. Dew Point Humidity Pressure Visibility Wind Dir Wind Speed Gust Speed Precip Events Conditions
12:00 AM 51.8 °F 50.0 °F 94% 29.95 in 5.6 mi ENE 9.2 mph - N/A   Overcast
12:30 AM 51.8 °F 50.0 °F 94% 29.95 in 5.6 mi ENE 11.5 mph - N/A   Overcast
1:00 AM 51 °F 50 °F 96% 29.97 in 6 mi ENE 11.2 mph - -   Mist
1:00 AM 51.8 °F 50.0 °F 94% 29.95 in 5.6 mi ENE 10.4 mph - N/A   Overcast
1:30 AM 51.8 °F 50.0 °F 94% 29.95 in 5.0 mi NE 9.2 mph - N/A   Overcast
2:00 AM 51.8 °F 50.0 °F 94% 29.95 in 2.5 mi ENE 12.7 mph - N/A   Light Drizzle
2:30 AM 50.0 °F 50.0 °F 100% 29.95 in 2.5 mi ENE 12.7 mph - N/A   Light Drizzle
3:00 AM 50.0 °F 50.0 °F 100% 29.95 in 3.1 mi ENE 11.5 mph - N/A   Overcast
3:30 AM 51.8 °F 50.0 °F 94% 29.95 in 5.0 mi ENE 11.5 mph - N/A   Overcast
4:00 AM 51.8 °F 48.2 °F 88% 29.95 in 5.0 mi ENE 10.4 mph - N/A   Overcast
4:30 AM 51.8 °F 48.2 °F 88% 29.95 in 5.6 mi ENE 10.4 mph - N/A   Overcast
5:00 AM 51.8 °F 48.2 °F 88% 29.92 in 5.6 mi ENE 9.2 mph - N/A   Overcast
5:30 AM 50.0 °F 48.2 °F 94% 29.92 in 5.6 mi ENE 9.2 mph - N/A   Mostly Cloudy
6:00 AM 51.8 °F 48.2 °F 88% 29.92 in 6.2 mi ENE 10.4 mph - N/A   Overcast
6:30 AM 50.0 °F 48.2 °F 94% 29.92 in 6.2 mi ENE 8.1 mph - N/A   Overcast
7:00 AM 51 °F 49 °F 90% 29.95 in 9 mi ENE 11.2 mph - -   Mist
7:00 AM 51.8 °F 48.2 °F 88% 29.92 in 6.2 mi ENE 10.4 mph - N/A   Overcast
7:30 AM 51.8 °F 50.0 °F 94% 29.92 in 6.2 mi ENE 10.4 mph - N/A   Overcast
8:00 AM 51.8 °F 50.0 °F 94% 29.92 in 6.2 mi ENE 11.5 mph - N/A   Overcast
8:30 AM 51.8 °F 50.0 °F 94% 29.95 in 6.2 mi ENE 10.4 mph - N/A   Overcast
9:00 AM 51.8 °F 50.0 °F 94% 29.95 in 5.6 mi NE 11.5 mph - N/A   Light Drizzle
9:30 AM 51.8 °F 50.0 °F 94% 29.95 in 5.6 mi NE 11.5 mph - N/A   Light Drizzle
10:00 AM 51.8 °F 50.0 °F 94% 29.95 in 5.6 mi ENE 12.7 mph - N/A   Light Drizzle
10:30 AM 51.8 °F 51.8 °F 100% 29.95 in 5.0 mi ENE 12.7 mph - N/A   Overcast
11:00 AM 51.8 °F 51.8 °F 100% 29.95 in 3.7 mi ENE 9.2 mph - N/A   Mostly Cloudy
11:30 AM 51.8 °F 51.8 °F 100% 29.95 in 3.7 mi East 10.4 mph - N/A   Overcast
12:00 PM 53.6 °F 51.8 °F 94% 29.95 in 1.9 mi East 10.4 mph - N/A   Light Drizzle
12:30 PM 51.8 °F 51.8 °F 100% 29.95 in 1.0 mi East 10.4 mph - N/A   Light Drizzle
1:00 PM 51.8 °F 51.8 °F 100% 29.95 in 0.9 mi ENE 10.4 mph - N/A   Light Drizzle
1:30 PM 53.6 °F 53.6 °F 100% 29.95 in 1.1 mi ENE 11.5 mph - N/A   Light Drizzle
2:00 PM 53.6 °F 53.6 °F 100% 29.95 in 1.1 mi ENE 10.4 mph - N/A   Light Drizzle
2:30 PM 53.6 °F 53.6 °F 100% 29.95 in 1.1 mi ENE 11.5 mph - N/A   Light Drizzle
3:00 PM 53.6 °F 53.6 °F 100% 29.95 in 1.1 mi ENE 12.7 mph - N/A   Light Drizzle
3:30 PM 53.6 °F 53.6 °F 100% 29.95 in 1.0 mi ENE 11.5 mph - N/A   Light Drizzle
4:00 PM 53.6 °F 53.6 °F 100% 29.95 in 0.7 mi ENE 13.8 mph - N/A   Light Drizzle
4:30 PM 53.6 °F 53.6 °F 100% 29.95 in 0.9 mi East 12.7 mph - N/A   Light Drizzle
5:00 PM 53.6 °F 53.6 °F 100% 29.95 in 1.6 mi East 12.7 mph - N/A   Light Drizzle
5:30 PM 53.6 °F 53.6 °F 100% 29.95 in 2.5 mi ENE 12.7 mph - N/A   Light Drizzle
6:00 PM 53.6 °F 53.6 °F 100% 29.95 in 3.7 mi East 11.5 mph - N/A   Overcast
6:30 PM 53.6 °F 53.6 °F 100% 29.95 in 3.7 mi East 12.7 mph - N/A   Overcast
7:00 PM 53 °F 53 °F 98% 29.97 in 4 mi ENE 11.2 mph - -   Mist
7:00 PM 51.8 °F 51.8 °F 100% 29.95 in 3.7 mi ENE 11.5 mph - N/A   Overcast
7:30 PM 51.8 °F 51.8 °F 100% 29.95 in 3.7 mi East 10.4 mph - N/A   Overcast
8:00 PM 51.8 °F 51.8 °F 100% 29.95 in 3.7 mi ENE 10.4 mph - N/A   Mostly Cloudy
8:30 PM 51.8 °F 51.8 °F 100% 29.98 in 2.8 mi ENE 11.5 mph - N/A   Mostly Cloudy
9:00 PM 51.8 °F 51.8 °F 100% 29.95 in 2.8 mi East 10.4 mph - N/A   Mostly Cloudy
9:30 PM 51.8 °F 51.8 °F 100% 29.95 in 2.8 mi East 9.2 mph - N/A   Mostly Cloudy
10:00 PM 51.8 °F 51.8 °F 100% 29.95 in 1.6 mi East 10.4 mph - N/A   Mostly Cloudy
10:30 PM 51.8 °F 51.8 °F 100% 29.95 in 1.9 mi East 10.4 mph - N/A   Mostly Cloudy
11:00 PM 51.8 °F 51.8 °F 100% 29.95 in 2.2 mi East 10.4 mph - N/A   Mostly Cloudy
11:30 PM 51.8 °F 51.8 °F 100% 29.95 in 2.2 mi ENE 9.2 mph - N/A   Mostly Cloudy